Stations météo

Publicité
Marseille/Marignane, France (7650): Température de l'air & dewpoint: 15.06.2018 18:00:00 - 21.06.2018 18:00:00 (CEST)Marseille/Marignane, France (7650): Température de l'air 5cm: 15.06.2018 18:00:00 - 21.06.2018 18:00:00 (CEST)Marseille/Marignane, France (7650): Température de l'air -20cm & Température de l'air -100cm: 15.06.2018 18:00:00 - 21.06.2018 18:00:00 (CEST)Marseille/Marignane, France (7650): Vitesse du vent & gusts: 15.06.2018 18:00:00 - 21.06.2018 18:00:00 (CEST)Marseille/Marignane, France (7650): Direction du vent: 15.06.2018 18:00:00 - 21.06.2018 18:00:00 (CEST)Marseille/Marignane, France (7650): reduced air pressure: 15.06.2018 18:00:00 - 21.06.2018 18:00:00 (CEST)Marseille/Marignane, France (7650): visibility: 15.06.2018 18:00:00 - 21.06.2018 18:00:00 (CEST)Marseille/Marignane, France (7650): Ensoleillement: 15.06.2018 18:00:00 - 21.06.2018 18:00:00 (CEST)Marseille/Marignane, France (7650): Quantités de précipitations: 15.06.2018 18:00:00 - 21.06.2018 18:00:00 (CEST)
Date & Time tt [°C] td [°C] tt 5cm [°C] tt -20cm [°C] tt -100cm [°C] ff [km/h] ff [knt] fx [km/h] fx [knt] dd ppp [hPa] vv [km] sd [min] rr [mm]
21.06.2018 18:00:00 - - - - - - - - - - - - - -
21.06.2018 17:00:00 29,7 14,7 35,0 30,8 19,7 19 10 32 17 WSW 1015,0 22 60 0,0
21.06.2018 16:00:00 31,3 14,9 35,8 30,2 19,7 24 13 34 19 WSW 1015,3 21 60 0,0
21.06.2018 15:00:00 32,0 15,9 37,0 29,3 19,6 26 14 34 18 WSW 1015,7 21 60 0,0
21.06.2018 14:00:00 31,8 15,3 37,0 28,4 19,7 21 12 29 16 WSW 1016,1 20 60 0,0
21.06.2018 13:00:00 30,8 14,8 36,4 27,4 19,6 19 10 24 13 WSW 1016,4 19 60 0,0
21.06.2018 12:00:00 30,8 14,0 35,3 26,5 19,6 10 6 15 8 W 1016,8 17 60 0,0
21.06.2018 11:00:00 29,3 16,1 33,0 25,8 19,6 12 6 16 8 WSW 1017,0 15 60 0,0
21.06.2018 10:00:00 27,1 17,3 30,2 25,4 19,6 8 5 13 7 W 1017,4 14 60 0,0
21.06.2018 09:00:00 25,9 18,1 27,3 25,3 19,6 8 4 16 8 WNW 1017,5 22 55 0,0
21.06.2018 08:00:00 25,6 16,4 24,2 25,5 19,6 4 2 10 6 W 1017,4 22 29 0,0
21.06.2018 07:00:00 23,8 16,3 22,1 25,7 19,6 5 3 14 8 ESE 1017,4 25 37 0,0
21.06.2018 06:00:00 23,1 16,2 20,8 26,1 19,6 3 2 14 7 E 1017,2 27 0 0,0
21.06.2018 05:00:00 22,4 16,0 21,0 26,4 19,6 8 5 14 8 SE 1017,4 27 0 0,0
21.06.2018 04:00:00 22,9 16,4 22,0 26,8 19,6 8 5 9 5 SE 1017,9 29 0 0,0
21.06.2018 03:00:00 24,2 16,5 22,4 27,2 19,6 3 2 8 5 NNW 1018,4 40 0 0,0
21.06.2018 02:00:00 23,9 16,2 22,5 27,6 19,6 3 2 9 5 W 1018,5 35 0 0,0
21.06.2018 01:00:00 24,3 14,7 21,6 28,1 19,5 0 0 9 5 N 1018,5 34 0 0,0
21.06.2018 00:00:00 25,4 15,4 21,5 28,6 19,5 2 1 9 5 NE 1018,8 40 0 0,0
20.06.2018 23:00:00 26,7 11,6 24,4 29,1 19,5 8 4 14 7 ENE 1019,1 56 0 0,0
20.06.2018 22:00:00 26,7 11,6 25,5 29,6 19,5 10 5 13 7 ESE 1018,7 54 0 0,0
20.06.2018 21:00:00 26,9 12,5 26,9 30,0 19,5 5 3 13 7 S 1018,4 57 9 0,0
20.06.2018 20:00:00 27,5 13,8 27,9 30,3 19,5 10 5 17 9 S 1018,5 47 0 0,0
20.06.2018 19:00:00 28,1 14,3 29,3 30,4 19,5 14 7 25 14 S 1018,5 33 15 0,0
20.06.2018 18:00:00 29,5 14,1 31,7 30,3 19,5 18 10 32 17 SSW 1018,4 29 25 0,0
20.06.2018 17:00:00 30,1 13,0 33,5 29,9 19,5 24 13 39 21 S 1018,5 21 42 0,0
20.06.2018 16:00:00 31,0 13,3 36,7 29,2 19,5 25 13 46 25 S 1018,5 18 60 0,0
20.06.2018 15:00:00 31,5 15,0 37,7 28,4 19,5 24 13 40 22 S 1018,7 19 60 0,0
20.06.2018 14:00:00 31,3 15,3 37,5 27,4 19,5 29 16 46 25 S 1018,7 20 60 0,0
20.06.2018 13:00:00 32,1 16,4 35,6 26,4 19,5 27 15 40 21 S 1018,9 20 60 0,0
20.06.2018 12:00:00 29,7 17,8 34,0 25,5 19,4 12 7 17 9 W 1019,1 20 60 0,0
20.06.2018 11:00:00 28,2 17,1 32,0 24,8 19,5 10 5 13 7 WNW 1019,0 20 60 0,0
20.06.2018 10:00:00 27,0 17,2 31,3 24,4 19,5 8 5 17 9 WNW 1019,1 26 60 0,0
20.06.2018 09:00:00 26,1 16,6 28,0 24,3 19,5 4 2 9 5 NW 1019,0 20 60 0,0
20.06.2018 08:00:00 24,5 15,7 22,6 24,5 19,4 4 2 10 5 S 1018,7 30 60 0,0
20.06.2018 07:00:00 20,9 15,9 18,2 24,9 19,4 9 5 11 6 SE 1018,5 25 37 0,0
20.06.2018 06:00:00 20,2 15,4 17,5 25,3 19,4 8 4 11 6 SE 1018,3 27 0 0,0
20.06.2018 05:00:00 19,7 15,3 17,7 25,8 19,4 8 5 11 6 SE 1018,2 29 0 0,0
20.06.2018 04:00:00 20,2 15,2 17,8 26,3 19,4 9 5 11 6 SE 1018,1 30 0 0,0
20.06.2018 03:00:00 21,4 15,0 19,2 26,8 19,4 5 3 9 5 S 1018,3 31 0 0,0
20.06.2018 02:00:00 21,9 14,8 19,7 27,4 19,4 5 3 10 5 SSE 1018,6 32 0 0,0
20.06.2018 01:00:00 22,7 15,3 20,8 28,0 19,4 8 4 14 8 SE 1018,7 32 0 0,0
20.06.2018 00:00:00 23,5 15,0 21,2 28,6 19,4 10 5 13 7 SE 1018,7 36 0 0,0
19.06.2018 23:00:00 24,6 14,7 22,2 29,2 19,4 9 5 11 6 SE 1018,6 37 0 0,0
19.06.2018 22:00:00 25,6 14,7 24,6 29,8 19,4 8 4 16 9 SSE 1018,1 37 0 0,0
19.06.2018 21:00:00 27,1 15,1 27,5 30,2 19,4 8 5 23 12 S 1017,8 41 58 0,0
19.06.2018 20:00:00 29,1 17,0 30,8 30,3 19,4 16 9 26 14 WSW 1017,6 42 60 0,0
19.06.2018 19:00:00 31,7 15,2 34,5 30,2 19,3 16 9 25 13 WSW 1017,6 36 60 0,0
19.06.2018 18:00:00 32,1 16,0 36,3 29,8 19,3 17 9 29 16 WSW 1018,0 31 60 0,0
19.06.2018 17:00:00 32,1 16,0 35,4 29,2 19,3 21 11 28 15 WSW 1018,3 28 54 0,0
19.06.2018 16:00:00 32,4 14,1 37,7 28,4 19,3 16 9 24 13 WSW 1018,5 30 60 0,0
19.06.2018 15:00:00 31,6 15,1 37,4 27,4 19,3 11 6 18 10 W 1018,8 20 60 0,0
19.06.2018 14:00:00 31,6 15,5 36,5 26,3 19,3 12 6 17 9 W 1018,9 31 60 0,0
19.06.2018 13:00:00 30,5 16,1 33,9 25,3 19,3 14 8 22 12 W 1019,2 34 60 0,0
19.06.2018 12:00:00 28,3 16,2 32,2 24,3 19,3 15 8 21 11 WSW 1019,4 20 60 0,0
19.06.2018 11:00:00 26,7 16,0 31,2 23,6 19,3 14 7 20 11 WSW 1019,4 49 60 0,0
19.06.2018 10:00:00 26,0 14,8 28,2 23,2 19,3 8 4 14 7 W 1019,5 55 60 0,0
19.06.2018 09:00:00 23,8 14,5 25,9 23,1 19,3 8 5 20 11 NNW 1019,4 51 60 0,0
19.06.2018 08:00:00 21,8 13,9 22,0 23,4 19,3 17 9 34 19 N 1019,0 60 60 0,0
19.06.2018 07:00:00 20,6 13,8 19,5 23,7 19,3 19 10 33 18 NNW 1018,8 51 37 0,0
19.06.2018 06:00:00 20,1 13,5 18,7 24,0 19,3 22 12 28 15 N 1018,4 59 0 0,0
19.06.2018 05:00:00 20,2 13,2 19,0 24,5 19,3 19 11 24 13 N 1018,0 60 0 0,0
19.06.2018 04:00:00 20,6 13,1 19,1 24,9 19,2 12 6 17 9 N 1018,2 60 0 0,0
19.06.2018 03:00:00 21,0 13,2 18,8 25,3 19,2 10 5 16 9 N 1018,1 60 0 0,0
19.06.2018 02:00:00 21,7 13,6 20,6 25,9 19,3 11 6 22 12 N 1017,9 60 0 0,0
19.06.2018 01:00:00 22,3 13,6 21,5 26,4 19,2 16 9 29 16 NNW 1018,0 60 0 0,0
19.06.2018 00:00:00 23,0 13,2 22,4 26,9 19,3 19 10 30 16 NNW 1018,2 60 0 0,0
18.06.2018 23:00:00 23,1 13,3 22,7 27,5 19,2 23 12 41 22 NW 1017,9 60 0 0,0
18.06.2018 22:00:00 24,6 13,5 24,2 28,0 19,2 22 12 45 24 NW 1017,5 60 0 0,0
18.06.2018 21:00:00 26,0 13,5 26,2 28,3 19,2 23 13 44 24 NW 1017,1 13 57 0,0
18.06.2018 20:00:00 27,6 13,9 29,4 28,5 19,2 29 16 41 22 NW 1016,8 38 60 0,0
18.06.2018 19:00:00 28,7 13,0 31,4 28,5 19,2 29 15 45 25 NNW 1016,4 33 60 0,0
18.06.2018 18:00:00 29,6 13,8 33,5 28,1 19,2 27 14 39 21 NNW 1016,6 19 60 0,0
18.06.2018 17:00:00 30,1 13,8 35,2 27,6 19,2 21 12 32 18 WNW 1016,7 19 60 0,0
18.06.2018 16:00:00 30,2 13,5 35,1 26,9 19,2 23 12 40 21 NNW 1016,7 19 60 0,0
18.06.2018 15:00:00 29,5 13,7 34,9 26,0 19,2 24 13 35 19 NW 1016,9 20 60 0,0
18.06.2018 14:00:00 29,3 13,5 33,7 25,1 19,2 20 11 33 18 NW 1017,0 21 60 0,0
18.06.2018 13:00:00 27,7 13,2 32,0 24,2 19,2 22 12 34 19 NW 1017,5 23 60 0,0
18.06.2018 12:00:00 26,6 12,3 30,3 23,5 19,2 25 13 40 22 NNW 1017,4 26 60 0,0
18.06.2018 11:00:00 25,4 11,6 28,0 23,0 19,1 27 15 41 22 NNW 1017,4 26 60 0,0
18.06.2018 10:00:00 24,2 11,5 26,2 22,7 19,1 26 14 38 20 NNW 1017,3 26 60 0,0
18.06.2018 09:00:00 22,7 10,8 23,7 22,7 19,1 27 14 59 32 N 1017,2 26 60 0,0
18.06.2018 08:00:00 21,2 10,4 21,1 22,9 19,1 31 17 51 28 NNW 1017,0 28 60 0,0
18.06.2018 07:00:00 20,0 10,4 19,3 23,2 19,1 34 18 50 27 NNW 1016,8 30 38 0,0
18.06.2018 06:00:00 20,0 11,0 19,4 23,6 19,1 34 18 48 26 NNW 1016,5 60 0 0,0
18.06.2018 05:00:00 20,3 10,7 19,6 24,0 19,1 28 15 46 25 NNW 1016,1 60 0 0,0
18.06.2018 04:00:00 20,7 11,1 20,1 24,4 19,1 30 16 51 28 NW 1016,0 60 0 0,0
18.06.2018 03:00:00 21,1 11,1 20,6 24,8 19,1 31 17 50 27 NW 1016,1 60 0 0,0
18.06.2018 02:00:00 21,6 11,0 21,2 25,3 19,1 35 19 54 29 NW 1016,2 60 0 0,0
18.06.2018 01:00:00 22,2 11,6 21,7 25,8 19,1 35 19 58 31 NW 1016,5 60 0 0,0
18.06.2018 00:00:00 22,8 12,1 22,4 26,3 19,1 40 21 58 32 NW 1016,2 50 0 0,0
17.06.2018 23:00:00 23,6 11,9 23,1 26,8 19,1 35 19 53 29 NW 1016,4 60 0 0,0
17.06.2018 22:00:00 24,4 11,7 24,0 27,3 19,1 34 18 54 29 NW 1016,0 60 0 0,0
17.06.2018 21:00:00 25,4 11,9 25,5 27,7 19,1 33 18 58 32 NW 1015,5 39 57 0,0
17.06.2018 20:00:00 26,4 12,5 27,2 27,9 19,1 44 24 59 32 NW 1015,2 50 60 0,0
17.06.2018 19:00:00 26,3 13,1 27,2 27,9 19,1 35 19 54 29 NW 1015,4 36 45 0,0
17.06.2018 18:00:00 28,6 14,1 30,5 27,7 19,1 34 18 50 27 NW 1014,9 17 58 0,0
17.06.2018 17:00:00 29,2 14,6 30,0 27,4 19,1 35 19 45 25 WNW 1015,0 19 41 0,0
17.06.2018 16:00:00 28,6 14,8 30,5 26,8 19,0 31 17 45 24 WNW 1015,3 20 52 0,0
17.06.2018 15:00:00 28,8 14,6 32,4 26,2 19,0 29 15 45 24 WNW 1015,1 20 55 0,0
17.06.2018 14:00:00 28,9 15,1 33,5 25,3 19,0 32 17 42 23 WNW 1015,1 21 60 0,0
17.06.2018 13:00:00 28,4 14,2 32,3 24,4 19,0 27 14 44 24 NW 1015,2 20 60 0,0
17.06.2018 12:00:00 27,6 13,9 30,2 23,8 19,0 26 14 44 24 NW 1015,4 22 60 0,0
17.06.2018 11:00:00 25,9 13,7 28,2 23,3 19,0 31 17 45 24 NNW 1015,5 19 60 0,0
17.06.2018 10:00:00 24,6 13,5 26,2 23,1 19,0 34 19 52 28 NNW 1015,5 18 60 0,0
17.06.2018 09:00:00 23,3 12,9 24,3 23,1 19,0 31 17 44 24 NW 1015,5 36 60 0,0
17.06.2018 08:00:00 22,3 13,4 22,2 23,3 19,0 22 12 38 20 NW 1015,0 42 60 0,0
17.06.2018 07:00:00 21,4 13,8 20,5 23,6 19,0 25 14 37 20 NW 1014,6 33 38 0,0
17.06.2018 06:00:00 21,5 13,7 20,8 24,0 19,0 19 10 42 23 NW 1014,2 60 0 0,0
17.06.2018 05:00:00 22,2 14,1 20,7 24,3 19,0 26 14 41 22 NW 1014,1 60 0 0,0
17.06.2018 04:00:00 21,2 14,1 20,1 24,8 19,0 19 10 27 14 NW 1013,9 60 0 0,0
17.06.2018 03:00:00 21,3 14,2 20,7 25,2 19,0 18 10 37 20 NW 1013,7 60 0 0,0
17.06.2018 02:00:00 22,3 14,7 21,8 25,7 19,0 29 16 41 22 WNW 1013,8 49 0 0,0
17.06.2018 01:00:00 23,4 14,9 22,7 26,2 19,0 26 14 36 19 WNW 1013,8 37 0 0,0
17.06.2018 00:00:00 23,9 13,4 23,3 26,7 19,0 19 10 33 18 NW 1013,7 55 0 0,0
16.06.2018 23:00:00 24,8 13,0 23,6 27,3 18,9 23 12 34 18 NW 1013,6 60 0 0,0
16.06.2018 22:00:00 25,1 13,9 24,3 27,7 18,9 14 8 20 11 WNW 1013,3 60 0 0,0
16.06.2018 21:00:00 26,9 13,6 26,6 28,2 18,9 16 8 37 20 NW 1012,9 60 38 0,0
16.06.2018 20:00:00 27,6 12,0 28,1 28,6 18,9 21 11 39 21 NW 1012,6 46 5 0,0
16.06.2018 19:00:00 28,8 14,6 29,8 28,6 18,9 23 12 36 19 NW 1012,0 44 18 0,0
16.06.2018 18:00:00 30,3 14,4 34,2 28,3 18,9 19 10 29 15 W 1012,0 31 60 0,0
16.06.2018 17:00:00 30,6 14,7 35,2 27,7 18,9 20 11 26 14 W 1012,1 30 60 0,0
16.06.2018 16:00:00 30,1 15,8 33,9 26,9 19,0 13 7 29 15 W 1012,1 34 53 0,0
16.06.2018 15:00:00 29,4 15,1 33,7 25,9 18,9 18 10 28 15 SSW 1012,6 35 55 0,0
16.06.2018 14:00:00 29,6 14,2 34,2 24,9 18,9 16 9 24 13 W 1012,6 20 60 0,0
16.06.2018 13:00:00 29,6 15,7 32,7 24,0 18,9 19 10 28 15 WSW 1012,5 37 60 0,0
16.06.2018 12:00:00 27,4 15,7 30,9 23,1 18,9 20 11 27 15 W 1012,5 20 60 0,0
16.06.2018 11:00:00 25,2 15,2 29,0 22,4 18,9 13 7 19 11 WSW 1012,4 44 60 0,0
16.06.2018 10:00:00 23,5 14,8 25,0 22,1 18,9 10 5 15 8 WSW 1012,7 41 54 0,0
16.06.2018 09:00:00 21,5 13,9 24,6 22,1 18,9 6 4 19 10 N 1012,8 38 49 0,0
16.06.2018 08:00:00 20,7 13,9 20,6 22,3 18,9 0 0 9 5 N 1012,6 33 60 0,0
16.06.2018 07:00:00 18,1 13,4 16,1 22,6 18,9 5 3 12 6 SSE 1012,4 31 35 0,0
16.06.2018 06:00:00 18,8 13,0 16,6 23,0 18,9 9 5 18 10 N 1012,0 35 0 0,0
16.06.2018 05:00:00 19,3 13,7 15,5 23,4 18,9 10 5 14 8 N 1011,9 39 0 0,0
16.06.2018 04:00:00 20,1 13,3 16,9 23,8 18,9 6 3 12 6 N 1011,8 45 0 0,0
16.06.2018 03:00:00 20,9 13,3 19,8 24,2 18,9 9 5 14 8 NNW 1011,9 50 0 0,0
16.06.2018 02:00:00 21,1 13,8 19,9 24,7 18,9 8 5 21 11 N 1011,8 45 0 0,0
16.06.2018 01:00:00 22,2 13,5 20,9 25,2 18,9 15 8 26 14 NW 1011,8 54 0 0,0
16.06.2018 00:00:00 22,0 13,4 21,2 25,8 18,9 20 11 27 14 WNW 1011,7 58 0 0,0
15.06.2018 23:00:00 22,5 12,7 21,8 26,4 18,9 17 9 29 16 NW 1011,7 58 0 0,0
15.06.2018 22:00:00 23,8 12,4 23,2 26,9 18,9 18 10 34 18 NW 1011,6 59 0 0,0
15.06.2018 21:00:00 25,4 12,9 25,6 27,3 18,9 19 10 32 18 NW 1011,3 48 56 0,0
15.06.2018 20:00:00 27,4 12,6 29,0 27,4 18,9 27 15 33 18 WNW 1010,8 47 60 0,0
15.06.2018 19:00:00 28,2 11,7 31,4 27,3 18,9 14 8 37 20 W 1010,7 48 60 0,0
15.06.2018 18:00:00 29,3 12,7 29,6 27,0 18,9 16 9 26 14 W 1010,9 53 38 0,0

tt = Température de l'air
td = dewpoint
tt 5cm = Température de l'air 5cm
tt -20cm = Température de l'air -20cm
tt -100cm = Température de l'air -100cm
ff = Vitesse du vent
fx = gusts
dd = Direction du vent
ppp = reduced air pressure
vv = visibility
sd = Ensoleillement
rr = Quantités de précipitations

stations d'obs. à proximité